Previsão horária em Abdrezyakovo

Hoje, 18 Janeiro, Segunda-feira

Tempo Temperatura Precipitação Vento Pressão Humidade
00:00 -24°C° 0 mm 4 m/s 723 mmHg 95%
01:00 -24°C° 0 mm 3 m/s 724 mmHg 96%
02:00 -24°C° 0 mm 3 m/s 725 mmHg 96%
03:00 -25°C° 0 mm 3 m/s 725 mmHg 97%
04:00 -24°C° 0 mm 2 m/s 725 mmHg 98%
05:00 -25°C° 0 mm 2 m/s 726 mmHg 98%
06:00 -26°C° 0 mm 2 m/s 726 mmHg 98%
07:00 -26°C° 0 mm 2 m/s 727 mmHg 99%
08:00 -23°C° 0 mm 1 m/s 727 mmHg 98%
09:00 -22°C° 0 mm 1 m/s 727 mmHg 98%
10:00 -22°C° 0 mm 0 m/s 728 mmHg 97%
11:00 -21°C° 0 mm 0 m/s 728 mmHg 95%
12:00 -19°C° 0 mm 0 m/s 728 mmHg 92%
13:00 -18°C° 0 mm 0 m/s 728 mmHg 90%
14:00 -19°C° 0 mm 0 m/s 728 mmHg 92%
15:00 -20°C° 0 mm 0 m/s 729 mmHg 95%
16:00 -22°C° 0 mm 0 m/s 729 mmHg 97%
17:00 -22°C° 0 mm 0 m/s 729 mmHg 97%
18:00 -23°C° 0 mm 0 m/s 728 mmHg 97%
19:00 -23°C° 0 mm 0 m/s 728 mmHg 96%
20:00 -23°C° 0 mm 0 m/s 729 mmHg 95%
21:00 -22°C° 0 mm 0 m/s 729 mmHg 93%
22:00 -22°C° 0 mm 0 m/s 729 mmHg 91%
23:00 -21°C° 0 mm 0 m/s 729 mmHg 90%

Amanhã, 19 Janeiro, Terça-feira

Tempo Temperatura Precipitação Vento Pressão Humidade
00:00 -21°C° 0 mm 0 m/s 729 mmHg 89%
01:00 -21°C° 0 mm 0 m/s 729 mmHg 87%
02:00 -20°C° 0 mm 0 m/s 728 mmHg 86%
03:00 -19°C° 0 mm 0 m/s 728 mmHg 86%
04:00 -19°C° 0 mm 1 m/s 728 mmHg 85%
05:00 -18°C° 0 mm 1 m/s 728 mmHg 84%
06:00 -17°C° 0 mm 1 m/s 728 mmHg 84%
07:00 -17°C° 0 mm 1 m/s 728 mmHg 84%
08:00 -15°C° 0 mm 1 m/s 728 mmHg 83%
09:00 -16°C° 0 mm 2 m/s 728 mmHg 82%
10:00 -15°C° 0 mm 2 m/s 728 mmHg 80%
11:00 -14°C° 0 mm 2 m/s 728 mmHg 80%
12:00 -14°C° 0 mm 3 m/s 728 mmHg 80%
13:00 -14°C° 0 mm 3 m/s 727 mmHg 80%
14:00 -14°C° 0.1 mm 3 m/s 727 mmHg 84%
15:00 -14°C° 0.1 mm 3 m/s 727 mmHg 88%
16:00 -15°C° 0.1 mm 4 m/s 727 mmHg 93%
17:00 -16°C° 0.2 mm 4 m/s 727 mmHg 91%
18:00 -16°C° 0.2 mm 4 m/s 726 mmHg 89%
19:00 -16°C° 0.2 mm 4 m/s 726 mmHg 87%
20:00 -15°C° 0.3 mm 3 m/s 726 mmHg 89%
21:00 -15°C° 0.3 mm 3 m/s 726 mmHg 91%
22:00 -16°C° 0.3 mm 3 m/s 726 mmHg 93%
23:00 -16°C° 0.6 mm 3 m/s 725 mmHg 94%

Depois de amanhã, 20 Janeiro, Quarta-feira

Tempo Temperatura Precipitação Vento Pressão Humidade
00:00 -15°C° 0.6 mm 2 m/s 725 mmHg 94%
01:00 -15°C° 0.6 mm 2 m/s 725 mmHg 95%
02:00 -15°C° 0.6 mm 2 m/s 725 mmHg 95%
03:00 -16°C° 0.6 mm 2 m/s 724 mmHg 95%
04:00 -14°C° 0.6 mm 1 m/s 724 mmHg 96%
05:00 -14°C° 0.3 mm 1 m/s 724 mmHg 96%
06:00 -15°C° 0.3 mm 1 m/s 723 mmHg 96%
07:00 -15°C° 0.3 mm 1 m/s 723 mmHg 96%
08:00 -14°C° 0.3 mm 1 m/s 723 mmHg 96%
09:00 -14°C° 0.3 mm 1 m/s 723 mmHg 95%
10:00 -15°C° 0.3 mm 2 m/s 723 mmHg 95%
11:00 -16°C° 0.2 mm 3 m/s 723 mmHg 94%
12:00 -16°C° 0.2 mm 3 m/s 723 mmHg 93%
13:00 -17°C° 0.2 mm 4 m/s 723 mmHg 93%
14:00 -17°C° 0.2 mm 4 m/s 722 mmHg 93%
15:00 -19°C° 0.2 mm 5 m/s 722 mmHg 93%
16:00 -19°C° 0.2 mm 5 m/s 722 mmHg 93%
17:00 -20°C° 0.2 mm 5 m/s 723 mmHg 93%
18:00 -21°C° 0.2 mm 5 m/s 723 mmHg 94%
19:00 -22°C° 0.2 mm 5 m/s 723 mmHg 94%
20:00 -22°C° 0.2 mm 5 m/s 723 mmHg 94%
21:00 -24°C° 0.2 mm 5 m/s 723 mmHg 95%
22:00 -25°C° 0.2 mm 5 m/s 723 mmHg 95%
23:00 -25°C° 0.1 mm 5 m/s 723 mmHg 95%

21 Janeiro, Quinta-feira

Tempo Temperatura Precipitação Vento Pressão Humidade
00:00 -25°C° 0.1 mm 5 m/s 723 mmHg 95%
01:00 -26°C° 0.1 mm 5 m/s 723 mmHg 95%
02:00 -26°C° 0.1 mm 5 m/s 724 mmHg 95%
03:00 -26°C° 0.1 mm 5 m/s 724 mmHg 94%
04:00 -28°C° 0.1 mm 6 m/s 724 mmHg 94%
05:00 -27°C° 0 mm 5 m/s 724 mmHg 94%
06:00 -27°C° 0 mm 5 m/s 724 mmHg 94%
07:00 -27°C° 0 mm 5 m/s 724 mmHg 94%
08:00 -27°C° 0.1 mm 5 m/s 725 mmHg 94%
09:00 -27°C° 0.1 mm 5 m/s 725 mmHg 95%
10:00 -27°C° 0.1 mm 5 m/s 725 mmHg 95%
11:00 -26°C° 0.1 mm 5 m/s 726 mmHg 94%
12:00 -26°C° 0.1 mm 5 m/s 726 mmHg 94%
13:00 -24°C° 0.1 mm 4 m/s 726 mmHg 93%
14:00 -24°C° 0 mm 4 m/s 726 mmHg 94%
15:00 -24°C° 0 mm 4 m/s 726 mmHg 95%
16:00 -24°C° 0 mm 3 m/s 726 mmHg 96%
17:00 -24°C° 0 mm 3 m/s 727 mmHg 96%
18:00 -24°C° 0 mm 3 m/s 727 mmHg 96%
19:00 -24°C° 0 mm 3 m/s 727 mmHg 96%
20:00 -24°C° 0.1 mm 3 m/s 727 mmHg 96%
21:00 -24°C° 0.1 mm 3 m/s 727 mmHg 96%
22:00 -24°C° 0.1 mm 3 m/s 727 mmHg 96%
23:00 -24°C° 0 mm 3 m/s 726 mmHg 95%

22 Janeiro, Sexta-feira

Tempo Temperatura Precipitação Vento Pressão Humidade
00:00 -23°C° 0 mm 3 m/s 726 mmHg 94%
01:00 -23°C° 0 mm 3 m/s 726 mmHg 93%
02:00 -23°C° 0 mm 3 m/s 725 mmHg 93%
03:00 -22°C° 0 mm 3 m/s 725 mmHg 92%
04:00 -21°C° 0 mm 3 m/s 724 mmHg 91%
05:00 -19°C° 0.2 mm 3 m/s 723 mmHg 92%
06:00 -19°C° 0.2 mm 4 m/s 722 mmHg 93%
07:00 -18°C° 0.2 mm 4 m/s 722 mmHg 93%
08:00 -19°C° 0.7 mm 5 m/s 721 mmHg 93%
09:00 -20°C° 0.7 mm 6 m/s 720 mmHg 93%
10:00 -21°C° 0.7 mm 7 m/s 719 mmHg 94%
11:00 -21°C° 0.3 mm 7 m/s 719 mmHg 92%
12:00 -23°C° 0.3 mm 7 m/s 719 mmHg 91%
13:00 -23°C° 0.3 mm 7 m/s 719 mmHg 90%
14:00 -22°C° 0.1 mm 6 m/s 719 mmHg 89%
15:00 -22°C° 0.1 mm 6 m/s 719 mmHg 89%
16:00 -21°C° 0.1 mm 5 m/s 719 mmHg 88%
17:00 -21°C° 0.1 mm 5 m/s 720 mmHg 90%
18:00 -20°C° 0.1 mm 5 m/s 720 mmHg 92%
19:00 -19°C° 0.1 mm 4 m/s 721 mmHg 93%
20:00 -19°C° 0.1 mm 4 m/s 721 mmHg 94%
21:00 -18°C° 0.1 mm 3 m/s 722 mmHg 95%
22:00 -17°C° 0.1 mm 2 m/s 722 mmHg 96%
23:00 -18°C° 0.1 mm 2 m/s 722 mmHg 96%

23 Janeiro, Sábado

Tempo Temperatura Precipitação Vento Pressão Humidade
00:00 -18°C° 0.1 mm 2 m/s 723 mmHg 97%
01:00 -16°C° 0.1 mm 1 m/s 723 mmHg 97%
02:00 -17°C° 0 mm 1 m/s 724 mmHg 97%
03:00 -17°C° 0 mm 1 m/s 724 mmHg 98%
04:00 -18°C° 0 mm 1 m/s 725 mmHg 98%
05:00 -18°C° 0 mm 1 m/s 726 mmHg 98%
06:00 -19°C° 0 mm 1 m/s 726 mmHg 99%
07:00 -20°C° 0 mm 1 m/s 727 mmHg 99%
08:00 -19°C° 0 mm 1 m/s 727 mmHg 98%
09:00 -18°C° 0 mm 1 m/s 728 mmHg 98%
10:00 -17°C° 0 mm 1 m/s 729 mmHg 97%
11:00 -16°C° 0 mm 0 m/s 729 mmHg 95%
12:00 -15°C° 0 mm 0 m/s 729 mmHg 93%
13:00 -14°C° 0 mm 0 m/s 729 mmHg 91%
14:00 -14°C° 0 mm 0 m/s 729 mmHg 92%
15:00 -15°C° 0 mm 0 m/s 730 mmHg 94%
16:00 -15°C° 0 mm 0 m/s 730 mmHg 95%
17:00 -16°C° 0 mm 0 m/s 730 mmHg 95%
18:00 -16°C° 0 mm 1 m/s 730 mmHg 94%
19:00 -16°C° 0 mm 1 m/s 730 mmHg 94%
20:00 -16°C° 0 mm 1 m/s 730 mmHg 95%
21:00 -15°C° 0 mm 1 m/s 730 mmHg 95%
22:00 -15°C° 0 mm 1 m/s 730 mmHg 96%
23:00 -15°C° 0.1 mm 1 m/s 730 mmHg 96%
Mostrar mais